Location: Newark
(42.8481°N, 0.4872°E)
Time: 09:26:04
(UTC+00:00)

Vanguard 1 - Pass Details

Date: 31 October 2020
Orbit: 650 x 3833 km, 34.2° (Epoch: 26 November)

Event Time Altitude Azimuth Distance (km) Brightness Sun altitude
Rises 15:00:00 0° 267° (W) 7,799 15.5 16.9°
Reaches altitude 10° 15:05:13 10° 265° (W) 6,896 15.5 16.2°
Maximum altitude 15:28:20 65° 191° (S) 3,663 13.5 12.8°
Drops below altitude 10° 15:44:37 10° 115° (ESE) 5,101 13.4 10.3°
Sets 15:47:49 0° 112° (ESE) 5,765 13.6 9.7°
